Location: *
(47.4028°N, 4.5006°E)
Time: 16:47:18
(UTC+00:00)

Daily predictions for brighter satellites

Satellite Brightness Start Highest point End
(mag) Time Altitude Azimuth Time Altitude Azimuth Time Altitude Azimuth
SPOT 3 Rocket 4.3 18:24:50 10° SE 18:29:21 32° ENE 18:33:53 10° N
NOSS 3-4 (A) 4.5 18:24:11 10° NW 18:30:34 40° NE 18:37:30 10° ESE
NOSS 3-4 (C) 4.5 18:24:17 10° NW 18:30:40 40° NE 18:37:36 10° ESE
Cosmos 2333 Rocket 2.8 18:26:19 10° NNW 18:31:42 41° NE 18:37:05 10° SE
Cosmos 1536 Rocket 3.6 18:28:12 10° N 18:32:29 56° ENE 18:36:44 10° SSE
ARGOS 4.2 18:28:15 10° ESE 18:32:36 26° ENE 18:36:58 10° N
YAOGAN 1 4.0 18:35:15 10° S 18:39:22 42° W 18:43:30 10° NNW
NOSS 3-3 (A) 4.1 18:34:58 10° SSW 18:40:43 55° ESE 18:47:08 10° NE
NOSS 3-3 (C) 4.1 18:35:05 10° SSW 18:40:49 55° ESE 18:47:14 10° NE
Cosmos 1025 Rocket 3.0 18:39:01 10° N 18:43:16 61° ENE 18:47:28 10° SSE
HJ-1C 3.3 18:40:01 10° SSE 18:43:22 78° ENE 18:46:46 10° N
Aureole 1 Rocket 3.5 18:41:04 10° NNW 18:46:51 57° ENE 18:51:11 10° SE
MOS 1 4.3 18:41:22 10° SSE 18:47:01 71° ENE 18:52:43 10° NNW
Cosmos 2237 Rocket 3.4 18:44:35 10° N 18:49:21 26° NE 18:53:18 13° E
Cosmos 1939 Rocket 3.2 18:47:39 10° S 18:51:30 64° W 18:55:21 10° NNW
Cosmos 1441 Rocket 3.8 18:48:19 10° SSE 18:51:47 33° E 18:55:15 10° NNE
BREEZE-M DEB (TANK) 4.2 18:50:53 10° W 18:52:24 16° SW 18:53:58 10° S
SJ-6B 3.3 18:49:01 10° SE 18:52:57 44° ENE 18:56:53 10° N
Cosmos 405 4.1 18:49:56 10° NNW 18:53:20 47° W 18:56:41 10° S
BREEZE-M DEB (TANK) 3.6 18:51:01 10° W 18:54:57 61° N 19:02:57 10° E
Cosmos 2151 Rocket 3.6 18:51:05 10° S 18:55:30 89° W 18:59:56 10° N
Cosmos 2074 Rocket 4.0 18:50:37 10° N 18:56:54 89° W 19:03:08 10° S
CZ-4C R/B 4.2 18:53:39 10° W 18:58:21 27° NNW 19:03:45 10° NNE
Cosmos 1544 3.3 18:56:13 10° SSE 18:59:37 43° E 19:03:04 10° NNE
USA 234 4.3 18:53:57 10° ENE 18:59:56 39° N 19:05:56 10° WNW
H-2A R/B 2.4 18:57:11 11° SE 19:01:37 42° ENE 19:06:18 10° N
FREGAT/IRIS 2.4 18:59:43 10° S 19:02:31 82° WSW 19:05:21 10° NNW
SAR-Lupe-2 3.4 18:59:36 10° NNE 19:03:11 76° ESE 19:06:46 10° S
Meteor 1-12 Rocket 4.2 19:01:55 10° S 19:07:40 73° E 19:13:20 10° NNE
Cosmos 1300 Rocket 4.0 19:04:10 10° SSW 19:08:26 64° W 19:12:44 10° N
Cosmos 2251 Rocket 3.8 19:03:21 10° NNW 19:08:44 73° WSW 19:14:04 10° SSE
Cosmos 1707 3.1 19:05:49 10° N 19:09:34 42° ENE 19:12:03 19° SE
ATLAS 2AS CENTAUR R/B 2.9 19:07:01 10° NW 19:14:50 78° NE 19:20:32 18° SE
Lacrosse 4 Rocket 4.1 19:12:56 10° WNW 19:15:27 16° WSW 19:17:57 10° SW
Cosmos 2333 4.4 19:09:57 10° NNW 19:15:37 74° WSW 19:21:17 10° SSE
Cosmos 2154 Rocket 3.9 19:09:26 10° N 19:15:41 78° E 19:21:53 10° SSE
SL-8 R/B 3.8 19:11:56 10° SW 19:16:37 56° SSE 19:19:44 20° E
SL-16 R/B 3.8 19:12:37 10° N 19:16:40 19° NE 19:19:18 15° ENE
SJ-11-01 4.4 19:14:01 10° S 19:18:46 81° WSW 19:23:33 10° NNW
ADEOS Rocket 3.7 19:12:28 10° NNE 19:19:22 48° E 19:26:44 10° S
COSMOS 2428 2.7 19:17:05 10° NNW 19:22:47 90° WSW 19:27:35 15° SSE
USA 186 2.3 19:23:54 10° S 19:27:11 61° W 19:30:35 10° NNW
Cosmos 1455 Rocket 4.1 19:28:37 26° E 19:28:37 26° E 19:32:07 10° NNE
Cosmos 2219 Rocket 2.2 19:25:46 10° NNW 19:31:23 80° WSW 19:35:48 17° SSE
CZ-2C R/B 3.4 19:29:08 26° SE 19:31:46 47° ENE 19:36:58 10° N
Resurs 01 Rocket 1.9 19:32:17 31° ESE 19:33:56 47° ENE 19:38:13 10° N
Cosmos 1461 2.6 19:30:04 10° SSW 19:34:05 79° SE 19:38:04 10° NE
Cosmos 1190 Rocket 4.4 19:30:19 10° NNW 19:35:26 46° ENE 19:37:29 31° ESE
Cosmos 389 Rocket 2.6 19:32:08 10° N 19:35:29 49° ENE 19:35:51 47° E
SL-8 Rocket 4.2 19:30:18 10° N 19:36:20 49° ENE 19:39:34 26° SE
Resurs 1-3 3.6 19:34:41 28° SE 19:36:51 64° ENE 19:41:13 10° N
BREEZE M DEB (TANK) 2.2 19:34:40 10° W 19:36:56 61° N 19:38:44 27° ENE
Cosmos 2360 Rocket 4.3 19:36:25 10° NW 19:40:52 24° WSW 19:45:19 10° SSW
Meteor 1-4 Rocket 2.9 19:37:37 10° N 19:41:04 43° ENE 19:41:04 43° ENE
ASTEX 1 3.8 19:40:12 10° N 19:45:03 64° W 19:49:52 10° SSW
Okean 1 Rocket 3.6 19:42:09 10° SSW 19:46:25 60° WNW 19:50:45 10° N
Cosmos 2219 3.3 19:43:56 10° S 19:49:27 50° ESE 19:55:01 10° NE
Cosmos 1437 Rocket 4.0 19:47:11 10° N 19:49:50 27° NE 19:49:50 27° NE
CZ-2C R/B 3.8 19:48:30 10° NE 19:52:13 26° ENE 19:52:13 26° ENE
Cosmos 2227 Rocket 3.2 19:55:32 27° ENE 19:55:32 27° ENE 19:58:49 10° NE
COSMOS 2455 4.2 19:49:37 10° NW 19:55:00 35° WSW 20:00:21 10° S
ERBS 4.3 19:57:59 10° NW 20:00:36 20° NNE 20:00:58 20° NNE
Cosmos 2056 Rocket 3.7 20:00:17 40° SSE 20:01:44 50° ESE 20:06:58 10° NNE
Cosmos 2297 Rocket 2.8 20:06:19 37° E 20:06:19 37° E 20:10:31 10° NE
Meteor 1-24 Rocket 4.0 20:00:33 10° N 20:06:05 49° ENE 20:07:05 45° ESE
Cosmos 405 Rocket 3.3 20:07:26 44° NNE 20:07:26 44° NNE 20:10:06 10° NNE
Meteor 2-17 Rocket 4.3 20:00:37 10° N 20:06:45 89° E 20:09:59 30° S
Cosmos 407 Rocket 3.4 20:05:39 10° NNW 20:10:49 86° WSW 20:12:11 50° SSE
Meteor 2-5 Rocket 3.7 20:06:17 10° N 20:12:05 74° ENE 20:13:50 47° SSE
ARGOS 3.8 20:08:34 17° S 20:12:32 53° W 20:17:49 10° NNW
Cosmos 1624 Rocket 3.8 20:13:24 51° SSE 20:14:29 65° ESE 20:19:39 10° NNE
Okean 1-7 Rocket 3.8 20:10:37 10° NNW 20:15:00 66° W 20:16:14 44° SSW
Cosmos 2333 Rocket 3.5 20:10:45 10° NW 20:15:56 37° WSW 20:19:49 16° SSW
MetOp-B 4.1 20:15:24 56° ESE 20:16:19 67° ENE 20:21:38 10° N
Cosmos 1892 Rocket 4.0 20:16:47 10° NNW 20:21:11 59° W 20:22:18 44° SSW
NOSS 3-4 (A) 4.0 20:15:01 10° NW 20:21:58 67° SW 20:25:10 37° SSE
NOSS 3-4 (C) 4.0 20:15:06 10° NW 20:22:04 68° SW 20:25:14 37° SSE
SPOT 5 4.2 20:23:09 27° NE 20:23:09 27° NE 20:26:26 10° N
Cosmos 614 Rocket 4.1 20:19:20 10° NNW 20:24:33 70° WSW 20:25:42 52° S
Cosmos 1954 Rocket 3.9 20:25:21 10° NNW 20:30:37 73° ENE 20:30:43 73° ENE
Cosmos 2237 Rocket 2.4 20:28:14 10° NNW 20:33:54 65° WSW 20:35:07 51° SSW
Spot 2 Rocket 3.4 20:34:28 71° SSW 20:34:58 80° WSW 20:40:03 10° NNW
Meteor 1-22 Rocket 4.3 20:36:06 67° SE 20:36:32 69° E 20:42:37 10° NNE
SL-08 R/B 4.4 20:32:41 10° N 20:39:13 83° E 20:40:25 62° SSE
ERS-1 Rocket 3.5 20:40:20 47° NE 20:40:20 47° NE 20:44:26 10° N
Landsat 7 4.5 20:41:53 45° NNE 20:41:53 45° NNE 20:45:32 10° N
Cosmos 2181 Rocket 4.4 20:35:31 12° SSW 20:41:12 63° WNW 20:47:29 10° N
H-2A R/B 3.8 20:37:49 13° SW 20:41:12 27° W 20:45:25 10° NW
USA 234 4.0 20:39:21 29° ENE 20:42:08 44° NNE 20:48:16 10° NW
Cosmos 1980 4.2 20:36:42 10° NW 20:42:11 53° WSW 20:43:22 45° SSW
Cosmos 1371 Rocket 4.4 20:39:05 10° SSW 20:44:21 64° WNW 20:49:41 10° NNE
Cosmos 1140 Rocket 3.6 20:41:13 10° NNW 20:46:22 65° WSW 20:46:33 64° WSW
Cosmos 1674 4.3 20:47:02 10° NNW 20:49:14 32° NNW 20:49:14 32° NNW
USA 245 4.4 20:55:44 70° SSW 20:56:28 81° WSW 21:02:35 10° NNW
Nadezhda 3 Rocket 4.3 20:59:21 52° NE 20:59:21 52° NE 21:04:19 10° NNE
Cosmos 676 Rocket 4.3 20:54:48 10° NNW 20:59:45 61° W 20:59:45 61° W
SL-16 R/B 2.2 20:55:57 10° NNW 21:01:11 75° N 21:01:11 75° N
ATLAS 2AS CENTAUR R/B 4.3 20:58:56 10° NW 21:05:03 27° WSW 21:07:59 21° SW
Resurs 01 Rocket 3.8 21:09:52 19° WSW 21:10:41 20° W 21:13:59 10° NW
Terra 3.2 21:14:13 32° N 21:14:13 32° N 21:16:54 10° N
Cosmos 1821 Rocket 4.0 21:13:04 10° N 21:18:36 72° N 21:18:36 72° N
CZ-2C R/B 3.4 21:28:23 10° N 21:33:42 49° WNW 21:33:43 49° WNW
Cosmos 2227 Rocket 3.1 21:37:14 44° WNW 21:37:44 46° NW 21:43:11 10° NNE
Cosmos 2297 Rocket 3.5 21:48:00 33° W 21:49:20 37° NW 21:54:35 10° NNE
USA 234 3.9 22:26:41 50° NW 22:26:41 50° NW 22:31:21 10° NW
CZ-4C R/B 4.1 22:33:56 10° NNW 22:39:53 32° NNE 22:41:02 30° NE
USA 267 4.4 23:26:37 10° NE 23:30:27 36° NE 23:30:27 36° NE
Cosmos 2263 Rocket 4.2 23:56:18 25° N 23:56:18 25° N 23:59:04 10° NNE
